Year,Month,Day,Hour,Minute,Value (Times are PST for windspeed in km/hr)
2023,02,04,00,00,11.30
2023,02,04,00,01,11.70
2023,02,04,00,02,15.60
2023,02,04,00,03,17.00
2023,02,04,00,04,17.20
2023,02,04,00,05,19.80
2023,02,04,00,06,17.90
2023,02,04,00,07,17.80
2023,02,04,00,08,17.60
2023,02,04,00,09,19.00
2023,02,04,00,10,17.60
2023,02,04,00,11,17.90
2023,02,04,00,12,15.00
2023,02,04,00,13,12.30
2023,02,04,00,14,11.50
2023,02,04,00,15,11.90
2023,02,04,00,16,9.10
2023,02,04,00,17,6.40
2023,02,04,00,18,6.30
2023,02,04,00,19,6.70
2023,02,04,00,20,10.50
2023,02,04,00,21,12.50
2023,02,04,00,22,7.90
2023,02,04,00,23,12.00
2023,02,04,00,24,13.20
2023,02,04,00,25,7.30
2023,02,04,00,26,10.20
2023,02,04,00,27,10.40
2023,02,04,00,28,14.00
2023,02,04,00,29,10.20
2023,02,04,00,30,9.80
2023,02,04,00,31,12.90
2023,02,04,00,32,8.10
2023,02,04,00,33,11.90
2023,02,04,00,34,14.60
2023,02,04,00,35,13.20
2023,02,04,00,36,13.20
2023,02,04,00,37,12.70
2023,02,04,00,38,10.30
2023,02,04,00,39,12.50
2023,02,04,00,40,12.70
2023,02,04,00,41,5.70
2023,02,04,00,42,13.30
2023,02,04,00,43,14.90
2023,02,04,00,44,15.70
2023,02,04,00,45,14.80
2023,02,04,00,46,11.00
2023,02,04,00,47,14.50
2023,02,04,00,48,13.90
2023,02,04,00,49,14.80
2023,02,04,00,50,14.20
2023,02,04,00,51,13.20
2023,02,04,00,52,9.80
2023,02,04,00,53,7.70
2023,02,04,00,54,4.80
2023,02,04,00,55,9.10
2023,02,04,00,56,5.40
2023,02,04,00,57,3.70
2023,02,04,00,58,9.50
2023,02,04,00,59,8.80
2023,02,04,01,00,4.10
2023,02,04,01,01,5.80
2023,02,04,01,02,8.40
2023,02,04,01,03,6.70
2023,02,04,01,04,6.30
2023,02,04,01,05,8.00
2023,02,04,01,06,10.40
2023,02,04,01,07,12.50
2023,02,04,01,08,8.20
2023,02,04,01,09,10.70
2023,02,04,01,10,7.80
2023,02,04,01,11,9.10
2023,02,04,01,12,8.60
2023,02,04,01,13,10.30
2023,02,04,01,14,10.90
2023,02,04,01,15,14.50
2023,02,04,01,16,14.50
2023,02,04,01,17,16.30
2023,02,04,01,18,12.40
2023,02,04,01,19,15.80
2023,02,04,01,20,15.60
2023,02,04,01,21,16.00
2023,02,04,01,22,14.70
2023,02,04,01,23,14.50
2023,02,04,01,24,18.90
2023,02,04,01,25,22.00
2023,02,04,01,26,11.90
2023,02,04,01,27,15.40
2023,02,04,01,28,17.30
2023,02,04,01,29,12.30
2023,02,04,01,30,12.90
2023,02,04,01,31,17.30
2023,02,04,01,32,18.20
2023,02,04,01,33,16.20
2023,02,04,01,34,15.10
2023,02,04,01,35,16.30
2023,02,04,01,36,16.30
2023,02,04,01,37,12.00
2023,02,04,01,38,15.60
2023,02,04,01,39,14.60
2023,02,04,01,40,14.70
2023,02,04,01,41,15.00
2023,02,04,01,42,16.00
2023,02,04,01,43,17.70
2023,02,04,01,44,18.80
2023,02,04,01,45,17.20
2023,02,04,01,46,16.20
2023,02,04,01,47,16.40
2023,02,04,01,48,18.10
2023,02,04,01,49,18.00
2023,02,04,01,50,14.90
2023,02,04,01,51,11.70
2023,02,04,01,52,13.00
2023,02,04,01,53,13.40
2023,02,04,01,54,10.60
2023,02,04,01,55,14.40
2023,02,04,01,56,14.90
2023,02,04,01,57,6.70
2023,02,04,01,58,10.80
2023,02,04,01,59,11.50
2023,02,04,02,00,10.50
2023,02,04,02,01,6.00
2023,02,04,02,02,6.30
2023,02,04,02,03,10.20
2023,02,04,02,04,10.60
2023,02,04,02,05,11.30
2023,02,04,02,06,10.70
2023,02,04,02,07,8.90
2023,02,04,02,08,11.50
2023,02,04,02,09,8.70
2023,02,04,02,10,4.40
2023,02,04,02,11,12.50
2023,02,04,02,12,8.30
2023,02,04,02,13,10.60
2023,02,04,02,14,4.70
2023,02,04,02,15,12.30
2023,02,04,02,16,8.10
2023,02,04,02,17,10.60
2023,02,04,02,18,11.90
2023,02,04,02,19,6.50
2023,02,04,02,20,10.00
2023,02,04,02,21,8.70
2023,02,04,02,22,4.20
2023,02,04,02,23,4.80
2023,02,04,02,24,7.60
2023,02,04,02,25,5.40
2023,02,04,02,26,1.70
2023,02,04,02,27,10.40
2023,02,04,02,28,4.20
2023,02,04,02,29,6.80
2023,02,04,02,30,7.60
2023,02,04,02,31,7.60
2023,02,04,02,32,7.40
2023,02,04,02,33,4.10
2023,02,04,02,34,0.10
2023,02,04,02,35,1.00
2023,02,04,02,36,0.20
2023,02,04,02,37,1.70
2023,02,04,02,38,0.80
2023,02,04,02,39,2.20
2023,02,04,02,40,2.30
2023,02,04,02,41,4.80
2023,02,04,02,42,5.50
2023,02,04,02,43,7.50
2023,02,04,02,44,4.30
2023,02,04,02,45,7.50
2023,02,04,02,46,1.80
2023,02,04,02,47,0.00
2023,02,04,02,48,0.20
2023,02,04,02,49,4.10
2023,02,04,02,50,2.00
2023,02,04,02,51,2.10
2023,02,04,02,52,0.10
2023,02,04,02,53,2.70
2023,02,04,02,54,2.10
2023,02,04,02,55,5.30
2023,02,04,02,56,6.30
2023,02,04,02,57,1.40
2023,02,04,02,58,0.80
2023,02,04,02,59,0.00
2023,02,04,03,00,0.30
2023,02,04,03,01,2.60
2023,02,04,03,02,0.70
2023,02,04,03,03,4.70
2023,02,04,03,04,0.10
2023,02,04,03,05,0.00
2023,02,04,03,06,0.40
2023,02,04,03,07,0.40
2023,02,04,03,08,0.10
2023,02,04,03,09,0.10
2023,02,04,03,10,0.00
2023,02,04,03,11,0.00
2023,02,04,03,12,0.00
2023,02,04,03,13,0.10
2023,02,04,03,14,0.00
2023,02,04,03,15,0.00
2023,02,04,03,16,0.00
2023,02,04,03,17,0.80
2023,02,04,03,18,1.20
2023,02,04,03,19,0.00
2023,02,04,03,20,1.30
2023,02,04,03,21,2.30
2023,02,04,03,22,0.80
2023,02,04,03,23,0.00
2023,02,04,03,24,0.00
2023,02,04,03,25,0.00
2023,02,04,03,26,0.00
2023,02,04,03,27,0.00
2023,02,04,03,28,0.00
2023,02,04,03,29,0.00
2023,02,04,03,30,0.00
2023,02,04,03,31,0.00
2023,02,04,03,32,0.00
2023,02,04,03,33,0.00
2023,02,04,03,34,0.00
2023,02,04,03,35,0.00
2023,02,04,03,36,0.00
2023,02,04,03,37,0.00
2023,02,04,03,38,0.00
2023,02,04,03,39,0.00
2023,02,04,03,40,0.00
2023,02,04,03,41,0.00
2023,02,04,03,42,0.00
2023,02,04,03,43,0.00
2023,02,04,03,44,0.00
2023,02,04,03,45,0.00
2023,02,04,03,46,0.00
2023,02,04,03,47,0.00
2023,02,04,03,48,0.00
2023,02,04,03,49,0.00
2023,02,04,03,50,0.00
2023,02,04,03,51,0.00
2023,02,04,03,52,0.00
2023,02,04,03,53,0.00
2023,02,04,03,54,0.00
2023,02,04,03,55,0.00
2023,02,04,03,56,0.00
2023,02,04,03,57,0.00
2023,02,04,03,58,0.00
2023,02,04,03,59,0.00
2023,02,04,04,00,0.00
2023,02,04,04,01,0.00
2023,02,04,04,02,0.00
2023,02,04,04,03,0.00
2023,02,04,04,04,0.00
2023,02,04,04,05,0.00
2023,02,04,04,06,0.00
2023,02,04,04,07,0.00
2023,02,04,04,08,0.00
2023,02,04,04,09,0.00
2023,02,04,04,10,0.00
2023,02,04,04,11,0.30
2023,02,04,04,12,0.50
2023,02,04,04,13,1.50
2023,02,04,04,14,2.90
2023,02,04,04,15,3.30
2023,02,04,04,16,2.60
2023,02,04,04,17,2.30
2023,02,04,04,18,2.60
2023,02,04,04,19,3.40
2023,02,04,04,20,4.30
2023,02,04,04,21,4.00
2023,02,04,04,22,4.50
2023,02,04,04,23,6.90
2023,02,04,04,24,6.10
2023,02,04,04,25,6.50
2023,02,04,04,26,5.60
2023,02,04,04,27,4.50
2023,02,04,04,28,4.90
2023,02,04,04,29,6.20
2023,02,04,04,30,6.50
2023,02,04,04,31,4.80
2023,02,04,04,32,6.30
2023,02,04,04,33,6.80
2023,02,04,04,34,8.30
2023,02,04,04,35,8.50
2023,02,04,04,36,7.90
2023,02,04,04,37,10.40
2023,02,04,04,38,11.70
2023,02,04,04,39,11.60
2023,02,04,04,40,11.60
2023,02,04,04,41,8.90
2023,02,04,04,42,10.20
2023,02,04,04,43,10.90
2023,02,04,04,44,12.10
2023,02,04,04,45,11.40
2023,02,04,04,46,9.50
2023,02,04,04,47,10.00
2023,02,04,04,48,9.80
2023,02,04,04,49,10.30
2023,02,04,04,50,10.70
2023,02,04,04,51,8.60
2023,02,04,04,52,7.60
2023,02,04,04,53,5.80
2023,02,04,04,54,4.00
2023,02,04,04,55,7.40
2023,02,04,04,56,8.10
2023,02,04,04,57,8.20
2023,02,04,04,58,7.00
2023,02,04,04,59,8.20
2023,02,04,05,00,6.60
2023,02,04,05,01,5.40
2023,02,04,05,02,7.30
2023,02,04,05,03,7.00
2023,02,04,05,04,7.10
2023,02,04,05,05,5.00
2023,02,04,05,06,2.80
2023,02,04,05,07,3.00
2023,02,04,05,08,2.30
2023,02,04,05,09,1.80
2023,02,04,05,10,2.10
2023,02,04,05,11,1.40
2023,02,04,05,12,2.10
2023,02,04,05,13,2.40
2023,02,04,05,14,2.00
2023,02,04,05,15,0.30
2023,02,04,05,16,1.30
2023,02,04,05,17,2.00
2023,02,04,05,18,1.70
2023,02,04,05,19,0.00
2023,02,04,05,20,0.00
2023,02,04,05,21,0.40
2023,02,04,05,22,2.00
2023,02,04,05,23,1.40
2023,02,04,05,24,0.70
2023,02,04,05,25,0.10
2023,02,04,05,26,0.20
2023,02,04,05,27,0.20
2023,02,04,05,28,1.00
2023,02,04,05,29,0.20
2023,02,04,05,30,0.00
2023,02,04,05,31,0.70
2023,02,04,05,32,1.60
2023,02,04,05,33,0.20
2023,02,04,05,34,0.80
2023,02,04,05,35,0.90
2023,02,04,05,36,0.00
2023,02,04,05,37,0.50
2023,02,04,05,38,1.50
2023,02,04,05,39,2.30
2023,02,04,05,40,2.60
2023,02,04,05,41,1.20
2023,02,04,05,42,1.60
2023,02,04,05,43,3.40
2023,02,04,05,44,3.00
2023,02,04,05,45,2.70
2023,02,04,05,46,4.50
2023,02,04,05,47,5.00
2023,02,04,05,48,4.60
2023,02,04,05,49,3.80
2023,02,04,05,50,3.00
2023,02,04,05,51,2.40
2023,02,04,05,52,1.70
2023,02,04,05,53,0.40
2023,02,04,05,54,0.00
2023,02,04,05,55,0.00
2023,02,04,05,56,0.00
2023,02,04,05,57,0.10
2023,02,04,05,58,0.20
2023,02,04,05,59,0.00
2023,02,04,06,00,0.00
2023,02,04,06,01,0.00
2023,02,04,06,02,0.00
2023,02,04,06,03,0.10
2023,02,04,06,04,0.30
2023,02,04,06,05,0.00
2023,02,04,06,06,0.00
2023,02,04,06,07,0.10
2023,02,04,06,08,0.10
2023,02,04,06,09,0.00
2023,02,04,06,10,0.00
2023,02,04,06,11,0.00
2023,02,04,06,12,0.00
2023,02,04,06,13,0.00
2023,02,04,06,14,0.00
2023,02,04,06,15,0.00
2023,02,04,06,16,0.00
2023,02,04,06,17,0.00
2023,02,04,06,18,0.00
2023,02,04,06,19,0.00
2023,02,04,06,20,0.00
2023,02,04,06,21,0.00
2023,02,04,06,22,0.00
2023,02,04,06,23,0.00
2023,02,04,06,24,0.00
2023,02,04,06,25,0.00
2023,02,04,06,26,0.00
2023,02,04,06,27,0.00
2023,02,04,06,28,0.00
2023,02,04,06,29,0.00
2023,02,04,06,30,0.00
2023,02,04,06,31,0.00
2023,02,04,06,32,0.00
2023,02,04,06,33,0.00
2023,02,04,06,34,0.00
2023,02,04,06,35,0.00
2023,02,04,06,36,0.00
2023,02,04,06,37,0.00
2023,02,04,06,38,0.00
2023,02,04,06,39,0.00
2023,02,04,06,40,0.00
2023,02,04,06,41,0.00
2023,02,04,06,42,0.00
2023,02,04,06,43,0.00
2023,02,04,06,44,0.70
2023,02,04,06,45,2.30
2023,02,04,06,46,2.50
2023,02,04,06,47,3.10
2023,02,04,06,48,2.70
2023,02,04,06,49,4.90
2023,02,04,06,50,4.90
2023,02,04,06,51,3.40
2023,02,04,06,52,2.20
2023,02,04,06,53,1.20
2023,02,04,06,54,0.40
2023,02,04,06,55,0.30
2023,02,04,06,56,3.30
2023,02,04,06,57,2.80
2023,02,04,06,58,4.80
2023,02,04,06,59,1.90
2023,02,04,07,00,0.20
2023,02,04,07,01,1.60
2023,02,04,07,02,0.70
2023,02,04,07,03,0.20
2023,02,04,07,04,0.40
2023,02,04,07,05,2.30
2023,02,04,07,06,2.30
2023,02,04,07,07,2.60
2023,02,04,07,08,3.30
2023,02,04,07,09,3.40
2023,02,04,07,10,2.80
2023,02,04,07,11,3.20
2023,02,04,07,12,5.70
2023,02,04,07,13,8.60
2023,02,04,07,14,9.40
2023,02,04,07,15,9.60
2023,02,04,07,16,11.40
2023,02,04,07,17,12.90
2023,02,04,07,18,12.10
2023,02,04,07,19,12.00
2023,02,04,07,20,13.80
2023,02,04,07,21,14.30
2023,02,04,07,22,16.20
2023,02,04,07,23,14.80
2023,02,04,07,24,13.60
2023,02,04,07,25,14.50
2023,02,04,07,26,13.70
2023,02,04,07,27,10.90
2023,02,04,07,28,11.70
2023,02,04,07,29,11.20
2023,02,04,07,30,11.10
2023,02,04,07,31,10.90
2023,02,04,07,32,11.80
2023,02,04,07,33,10.90
2023,02,04,07,34,10.30
2023,02,04,07,35,9.60
2023,02,04,07,36,13.30
2023,02,04,07,37,11.70
2023,02,04,07,38,11.80
2023,02,04,07,39,11.90
2023,02,04,07,40,8.50
2023,02,04,07,41,11.60
2023,02,04,07,42,11.00
2023,02,04,07,43,11.20
2023,02,04,07,44,8.90
2023,02,04,07,45,9.80
2023,02,04,07,46,10.80
2023,02,04,07,47,12.40
2023,02,04,07,48,12.00
2023,02,04,07,49,14.20
2023,02,04,07,50,13.90
2023,02,04,07,51,11.00
2023,02,04,07,52,12.00
2023,02,04,07,53,13.60
2023,02,04,07,54,11.10
2023,02,04,07,55,9.10
2023,02,04,07,56,7.60
2023,02,04,07,57,6.90
2023,02,04,07,58,9.20
2023,02,04,07,59,7.20
2023,02,04,08,00,8.90
2023,02,04,08,01,7.80
2023,02,04,08,02,6.30
2023,02,04,08,03,7.90
2023,02,04,08,04,10.80
2023,02,04,08,05,8.90
2023,02,04,08,06,10.40
2023,02,04,08,07,9.00
2023,02,04,08,08,8.00
2023,02,04,08,09,8.20
2023,02,04,08,10,8.60
2023,02,04,08,11,8.60
2023,02,04,08,12,7.50
2023,02,04,08,13,6.70
2023,02,04,08,14,7.20
2023,02,04,08,15,6.40
2023,02,04,08,16,6.10
2023,02,04,08,17,5.80
2023,02,04,08,18,0.60
2023,02,04,08,19,0.10
2023,02,04,08,20,0.00
2023,02,04,08,21,0.30
2023,02,04,08,22,2.60
2023,02,04,08,23,1.10
2023,02,04,08,24,1.10
2023,02,04,08,25,0.40
2023,02,04,08,26,0.60
2023,02,04,08,27,2.10
2023,02,04,08,28,0.50
2023,02,04,08,29,1.70
2023,02,04,08,30,1.00
2023,02,04,08,31,2.60
2023,02,04,08,32,3.50
2023,02,04,08,33,2.70
2023,02,04,08,34,3.80
2023,02,04,08,35,3.30
2023,02,04,08,36,1.80
2023,02,04,08,37,1.00
2023,02,04,08,38,0.80
2023,02,04,08,39,0.10
2023,02,04,08,40,0.10
2023,02,04,08,41,2.40
2023,02,04,08,42,4.20
2023,02,04,08,43,4.70
2023,02,04,08,44,3.60
2023,02,04,08,45,4.70
2023,02,04,08,46,5.40
2023,02,04,08,47,6.90
2023,02,04,08,48,7.50
2023,02,04,08,49,4.90
2023,02,04,08,50,4.10
2023,02,04,08,51,3.60
2023,02,04,08,52,1.20
2023,02,04,08,53,4.60
2023,02,04,08,54,5.30
2023,02,04,08,55,1.30
2023,02,04,08,56,1.90
2023,02,04,08,57,2.80
2023,02,04,08,58,1.00
2023,02,04,08,59,5.10
2023,02,04,09,00,3.60
2023,02,04,09,01,4.20
2023,02,04,09,02,6.40
2023,02,04,09,03,5.90
2023,02,04,09,04,6.60
2023,02,04,09,05,4.80
2023,02,04,09,06,9.20
2023,02,04,09,07,5.20
2023,02,04,09,08,5.40
2023,02,04,09,09,8.80
2023,02,04,09,10,7.80
2023,02,04,09,11,4.90
2023,02,04,09,12,6.00
2023,02,04,09,13,8.40
2023,02,04,09,14,7.80
2023,02,04,09,15,6.90
2023,02,04,09,16,7.20
2023,02,04,09,17,4.90
2023,02,04,09,18,5.80
2023,02,04,09,19,4.20
2023,02,04,09,20,2.30
2023,02,04,09,21,0.00
2023,02,04,09,22,0.00
2023,02,04,09,23,0.00
2023,02,04,09,24,0.00
2023,02,04,09,25,0.00
2023,02,04,09,26,0.00
2023,02,04,09,27,0.00
2023,02,04,09,28,0.00
2023,02,04,09,29,0.00
2023,02,04,09,30,0.00
2023,02,04,09,31,0.00
2023,02,04,09,32,0.00
2023,02,04,09,33,0.00
2023,02,04,09,34,0.00
2023,02,04,09,35,0.00
2023,02,04,09,36,0.00
2023,02,04,09,37,0.00
2023,02,04,09,38,0.00
2023,02,04,09,39,0.00
2023,02,04,09,40,0.00
2023,02,04,09,41,0.10
2023,02,04,09,42,0.00
2023,02,04,09,43,0.00
2023,02,04,09,44,0.00
2023,02,04,09,45,0.00
2023,02,04,09,46,0.00
2023,02,04,09,47,0.70
2023,02,04,09,48,2.60
2023,02,04,09,49,2.40
2023,02,04,09,50,2.90
2023,02,04,09,51,1.90
2023,02,04,09,52,2.00
2023,02,04,09,53,2.90
2023,02,04,09,54,2.70
2023,02,04,09,55,2.40
2023,02,04,09,56,1.40
2023,02,04,09,57,0.30
2023,02,04,09,58,0.00
2023,02,04,09,59,1.40
2023,02,04,10,00,2.40
2023,02,04,10,01,2.30
2023,02,04,10,02,0.80
2023,02,04,10,03,0.00
2023,02,04,10,04,0.00
2023,02,04,10,05,0.00
2023,02,04,10,06,0.20
2023,02,04,10,07,0.10
2023,02,04,10,08,0.00
2023,02,04,10,09,0.10
2023,02,04,10,10,0.00
2023,02,04,10,11,0.20
2023,02,04,10,12,0.00
2023,02,04,10,13,0.00
2023,02,04,10,14,0.00
2023,02,04,10,15,0.00
2023,02,04,10,16,0.00
2023,02,04,10,17,0.00
2023,02,04,10,18,0.00
2023,02,04,10,19,0.00
2023,02,04,10,20,1.70
2023,02,04,10,21,2.10
2023,02,04,10,22,0.00
2023,02,04,10,23,0.00
2023,02,04,10,24,0.10
2023,02,04,10,25,0.20
2023,02,04,10,26,0.10
2023,02,04,10,27,0.10
2023,02,04,10,28,0.00
2023,02,04,10,29,0.50
2023,02,04,10,30,1.70
2023,02,04,10,31,3.40
2023,02,04,10,32,6.80
2023,02,04,10,33,4.90
2023,02,04,10,34,6.10
2023,02,04,10,35,13.40
2023,02,04,10,36,13.80
2023,02,04,10,37,16.60
2023,02,04,10,38,15.80
2023,02,04,10,39,14.60
2023,02,04,10,40,13.10
2023,02,04,10,41,16.90
2023,02,04,10,42,17.10
2023,02,04,10,43,16.10
2023,02,04,10,44,15.60
2023,02,04,10,45,21.10
2023,02,04,10,46,19.40
2023,02,04,10,47,18.50
2023,02,04,10,48,19.10
2023,02,04,10,49,15.20
2023,02,04,10,50,11.70
2023,02,04,10,51,12.80
2023,02,04,10,52,10.50
2023,02,04,10,53,7.60
2023,02,04,10,54,8.90
2023,02,04,10,55,7.70
2023,02,04,10,56,6.80
2023,02,04,10,57,6.70
2023,02,04,10,58,7.30
2023,02,04,10,59,7.80
2023,02,04,11,00,6.90
2023,02,04,11,01,9.00
2023,02,04,11,02,11.30
2023,02,04,11,03,11.30
2023,02,04,11,04,11.80
2023,02,04,11,05,10.30
2023,02,04,11,06,12.20
2023,02,04,11,07,8.80
2023,02,04,11,08,9.30
2023,02,04,11,09,9.30
2023,02,04,11,10,9.40
2023,02,04,11,11,8.20
2023,02,04,11,12,7.70
2023,02,04,11,13,8.10
2023,02,04,11,14,6.50
2023,02,04,11,15,5.10
2023,02,04,11,16,3.80
2023,02,04,11,17,3.60
2023,02,04,11,18,2.40
2023,02,04,11,19,0.20
2023,02,04,11,20,0.10
2023,02,04,11,21,0.00
2023,02,04,11,22,0.00
2023,02,04,11,23,0.00
2023,02,04,11,24,0.00
2023,02,04,11,25,0.00
2023,02,04,11,26,0.00
2023,02,04,11,27,0.00
2023,02,04,11,28,0.00
2023,02,04,11,29,0.00
2023,02,04,11,30,0.00
2023,02,04,11,31,0.00
2023,02,04,11,32,0.00
2023,02,04,11,33,0.20
2023,02,04,11,34,0.10
2023,02,04,11,35,0.10
2023,02,04,11,36,0.00
2023,02,04,11,37,0.00
2023,02,04,11,38,0.00
2023,02,04,11,39,0.00
2023,02,04,11,40,0.00
2023,02,04,11,41,0.00
2023,02,04,11,42,0.00
2023,02,04,11,43,0.00
2023,02,04,11,44,0.00
2023,02,04,11,45,0.00
2023,02,04,11,46,0.00
2023,02,04,11,47,0.10
2023,02,04,11,48,0.60
2023,02,04,11,49,0.10
2023,02,04,11,50,0.00
2023,02,04,11,51,0.00
2023,02,04,11,52,0.00
2023,02,04,11,53,0.00
2023,02,04,11,54,0.00
2023,02,04,11,55,0.00
2023,02,04,11,56,0.00
2023,02,04,11,57,0.00
2023,02,04,11,58,0.00
2023,02,04,11,59,0.00
2023,02,04,12,00,0.00
2023,02,04,12,01,0.00
2023,02,04,12,02,0.00
2023,02,04,12,03,0.00
2023,02,04,12,04,0.70
2023,02,04,12,05,0.30
2023,02,04,12,06,1.20
2023,02,04,12,07,0.40
2023,02,04,12,08,0.00
2023,02,04,12,09,0.00
2023,02,04,12,10,0.30
2023,02,04,12,11,1.80
2023,02,04,12,12,0.00
2023,02,04,12,13,0.90
2023,02,04,12,14,0.10
2023,02,04,12,15,0.70
2023,02,04,12,16,3.60
2023,02,04,12,17,0.80
2023,02,04,12,18,9.00
2023,02,04,12,19,8.90
2023,02,04,12,20,7.70
2023,02,04,12,21,5.40
2023,02,04,12,22,7.70
2023,02,04,12,23,7.50
2023,02,04,12,24,7.30
2023,02,04,12,25,10.90
2023,02,04,12,26,11.80
2023,02,04,12,27,10.80
2023,02,04,12,28,9.20
2023,02,04,12,29,10.60
2023,02,04,12,30,8.80
2023,02,04,12,31,8.80
2023,02,04,12,32,9.30
2023,02,04,12,33,7.70
2023,02,04,12,34,6.00
2023,02,04,12,35,10.50
2023,02,04,12,36,11.60
2023,02,04,12,37,11.40
2023,02,04,12,38,7.90
2023,02,04,12,39,8.40
2023,02,04,12,40,7.30
2023,02,04,12,41,5.50
2023,02,04,12,42,7.20
2023,02,04,12,43,6.60
2023,02,04,12,44,5.30
2023,02,04,12,45,5.50
2023,02,04,12,46,6.60
2023,02,04,12,47,7.50
2023,02,04,12,48,10.10
2023,02,04,12,49,10.70
2023,02,04,12,50,15.60
2023,02,04,12,51,17.00
2023,02,04,12,52,16.80
2023,02,04,12,53,20.00
2023,02,04,12,54,19.80
2023,02,04,12,55,19.70
2023,02,04,12,56,19.90
2023,02,04,12,57,22.80
2023,02,04,12,58,22.00
2023,02,04,12,59,21.30
2023,02,04,13,00,20.90
2023,02,04,13,01,21.30
2023,02,04,13,02,21.10
2023,02,04,13,03,19.40
2023,02,04,13,04,21.10
2023,02,04,13,05,24.10
2023,02,04,13,06,23.00
2023,02,04,13,07,24.40
2023,02,04,13,08,25.70
2023,02,04,13,09,18.40
2023,02,04,13,10,19.80
2023,02,04,13,11,21.80
2023,02,04,13,12,20.60
2023,02,04,13,13,23.10
2023,02,04,13,14,21.20
2023,02,04,13,15,15.70
2023,02,04,13,16,18.30
2023,02,04,13,17,19.40
2023,02,04,13,18,16.50
2023,02,04,13,19,17.40
2023,02,04,13,20,19.00
2023,02,04,13,21,16.00
2023,02,04,13,22,15.40
2023,02,04,13,23,21.10
2023,02,04,13,24,18.20
2023,02,04,13,25,20.00
2023,02,04,13,26,20.60
2023,02,04,13,27,18.70
2023,02,04,13,28,21.50
2023,02,04,13,29,23.20
2023,02,04,13,30,17.50
2023,02,04,13,31,20.00
2023,02,04,13,32,21.00
2023,02,04,13,33,19.70
2023,02,04,13,34,17.50
2023,02,04,13,35,18.20
2023,02,04,13,36,22.50
2023,02,04,13,37,26.20
2023,02,04,13,38,17.20
2023,02,04,13,39,17.20
2023,02,04,13,40,18.30
2023,02,04,13,41,19.10
2023,02,04,13,42,20.30
2023,02,04,13,43,21.30
2023,02,04,13,44,21.30
2023,02,04,13,45,20.60
2023,02,04,13,46,16.50
2023,02,04,13,47,16.00
2023,02,04,13,48,15.40
2023,02,04,13,49,14.40
2023,02,04,13,50,21.40
2023,02,04,13,51,19.30
2023,02,04,13,52,23.10
2023,02,04,13,53,23.20
2023,02,04,13,54,21.70
2023,02,04,13,55,18.20
2023,02,04,13,56,19.50
2023,02,04,13,57,18.50
2023,02,04,13,58,20.10
2023,02,04,13,59,21.90
2023,02,04,14,00,18.80
2023,02,04,14,01,16.20
2023,02,04,14,02,15.80
2023,02,04,14,03,15.40
2023,02,04,14,04,17.80
2023,02,04,14,05,19.90
2023,02,04,14,06,18.50
2023,02,04,14,07,17.80
2023,02,04,14,08,19.20
2023,02,04,14,09,21.30
2023,02,04,14,10,18.40
2023,02,04,14,11,18.80
2023,02,04,14,12,16.40
2023,02,04,14,13,15.30
2023,02,04,14,14,17.70
2023,02,04,14,15,18.40
2023,02,04,14,16,17.90
2023,02,04,14,17,19.50
2023,02,04,14,18,17.50
2023,02,04,14,19,17.60
2023,02,04,14,20,16.30
2023,02,04,14,21,16.10
2023,02,04,14,22,18.80
2023,02,04,14,23,17.60
2023,02,04,14,24,17.50
2023,02,04,14,25,19.20
2023,02,04,14,26,21.90
2023,02,04,14,27,19.90
2023,02,04,14,28,20.90
2023,02,04,14,29,20.80
2023,02,04,14,30,22.40
2023,02,04,14,31,24.90
2023,02,04,14,32,19.80
2023,02,04,14,33,18.20
2023,02,04,14,34,20.30
2023,02,04,14,35,22.80
2023,02,04,14,36,19.40
2023,02,04,14,37,21.60
2023,02,04,14,38,20.90
2023,02,04,14,39,18.20
2023,02,04,14,40,22.60
2023,02,04,14,41,24.30
2023,02,04,14,42,24.80
2023,02,04,14,43,22.10
2023,02,04,14,44,21.00
2023,02,04,14,45,16.40
2023,02,04,14,46,19.40
2023,02,04,14,47,17.20
2023,02,04,14,48,13.00
2023,02,04,14,49,15.40
2023,02,04,14,50,18.20
2023,02,04,14,51,20.20
2023,02,04,14,52,18.60
2023,02,04,14,53,24.60
2023,02,04,14,54,20.60
2023,02,04,14,55,20.30
2023,02,04,14,56,15.60
2023,02,04,14,57,20.20
2023,02,04,14,58,16.70
2023,02,04,14,59,15.00
2023,02,04,15,00,15.00
2023,02,04,15,01,16.40
2023,02,04,15,02,15.20
2023,02,04,15,03,15.70
2023,02,04,15,04,16.40
2023,02,04,15,05,17.50
2023,02,04,15,06,17.00
2023,02,04,15,07,19.10
2023,02,04,15,08,18.90
2023,02,04,15,09,19.40
2023,02,04,15,10,16.00
2023,02,04,15,11,20.80
2023,02,04,15,12,20.00
2023,02,04,15,13,19.50
2023,02,04,15,14,19.30
2023,02,04,15,15,22.10
2023,02,04,15,16,24.90
2023,02,04,15,17,23.90
2023,02,04,15,18,21.20
2023,02,04,15,19,21.70
2023,02,04,15,20,19.30
2023,02,04,15,21,18.90
2023,02,04,15,22,19.00
2023,02,04,15,23,19.20
2023,02,04,15,24,19.00
2023,02,04,15,25,19.00
2023,02,04,15,26,19.40
2023,02,04,15,27,21.40
2023,02,04,15,28,18.60
2023,02,04,15,29,20.40
2023,02,04,15,30,21.30
2023,02,04,15,31,22.20
2023,02,04,15,32,15.70
2023,02,04,15,33,19.50
2023,02,04,15,34,21.40
2023,02,04,15,35,21.00
2023,02,04,15,36,27.60
2023,02,04,15,37,26.00
2023,02,04,15,38,21.20
2023,02,04,15,39,24.60
2023,02,04,15,40,23.50
2023,02,04,15,41,19.90
2023,02,04,15,42,26.40
2023,02,04,15,43,20.90
2023,02,04,15,44,20.10
2023,02,04,15,45,21.30
2023,02,04,15,46,19.60
2023,02,04,15,47,22.70
2023,02,04,15,48,19.40
2023,02,04,15,49,17.80
2023,02,04,15,50,16.90
2023,02,04,15,51,23.10
2023,02,04,15,52,21.40
2023,02,04,15,53,17.10
2023,02,04,15,54,17.50
2023,02,04,15,55,15.60
2023,02,04,15,56,15.10
2023,02,04,15,57,16.30
2023,02,04,15,58,15.70
2023,02,04,15,59,16.20
2023,02,04,16,00,17.40
2023,02,04,16,01,17.90
2023,02,04,16,02,14.90
2023,02,04,16,03,16.10
2023,02,04,16,04,15.30
2023,02,04,16,05,20.20
2023,02,04,16,06,20.40
2023,02,04,16,07,20.10
2023,02,04,16,08,17.60
2023,02,04,16,09,14.40
2023,02,04,16,10,16.70
2023,02,04,16,11,16.90
2023,02,04,16,12,17.00
2023,02,04,16,13,19.20
2023,02,04,16,14,16.60
2023,02,04,16,15,13.80
2023,02,04,16,16,19.10
2023,02,04,16,17,15.30
2023,02,04,16,18,17.60
2023,02,04,16,19,18.40
2023,02,04,16,20,16.70
2023,02,04,16,21,15.40
2023,02,04,16,22,15.90
2023,02,04,16,23,18.40
2023,02,04,16,24,14.50
2023,02,04,16,25,16.20
2023,02,04,16,26,10.90
2023,02,04,16,27,8.60
2023,02,04,16,28,12.80
2023,02,04,16,29,9.50
2023,02,04,16,30,9.90
2023,02,04,16,31,12.40
2023,02,04,16,32,12.10
2023,02,04,16,33,11.70
2023,02,04,16,34,10.50
2023,02,04,16,35,16.50
2023,02,04,16,36,18.20
2023,02,04,16,37,15.50
2023,02,04,16,38,17.30
2023,02,04,16,39,17.60
2023,02,04,16,40,13.40
2023,02,04,16,41,10.80
2023,02,04,16,42,13.30
2023,02,04,16,43,16.70
2023,02,04,16,44,18.50
2023,02,04,16,45,17.80
2023,02,04,16,46,16.60
2023,02,04,16,47,15.20
2023,02,04,16,48,15.40
2023,02,04,16,49,17.50
2023,02,04,16,50,17.00
2023,02,04,16,51,21.80
2023,02,04,16,52,24.40
2023,02,04,16,53,26.30
2023,02,04,16,54,22.80
2023,02,04,16,55,23.20
2023,02,04,16,56,31.20
2023,02,04,16,57,26.30
2023,02,04,16,58,27.40
2023,02,04,16,59,22.20
2023,02,04,17,00,28.50
2023,02,04,17,01,28.00
2023,02,04,17,02,25.10
2023,02,04,17,03,25.70
2023,02,04,17,04,24.30
2023,02,04,17,05,24.90
2023,02,04,17,06,22.40
2023,02,04,17,07,25.30
2023,02,04,17,08,22.80
2023,02,04,17,09,21.70
2023,02,04,17,10,21.90
2023,02,04,17,11,23.30
2023,02,04,17,12,23.00
2023,02,04,17,13,24.00
2023,02,04,17,14,20.90
2023,02,04,17,15,19.40
2023,02,04,17,16,16.00
2023,02,04,17,17,16.60
2023,02,04,17,18,16.80
2023,02,04,17,19,16.30
2023,02,04,17,20,16.90
2023,02,04,17,21,17.00
2023,02,04,17,22,12.50
2023,02,04,17,23,16.40
2023,02,04,17,24,15.80
2023,02,04,17,25,12.90
2023,02,04,17,26,17.90
2023,02,04,17,27,17.00
2023,02,04,17,28,15.20
2023,02,04,17,29,14.70
2023,02,04,17,30,12.50
2023,02,04,17,31,17.90
2023,02,04,17,32,15.40
2023,02,04,17,33,12.30
2023,02,04,17,34,16.70
2023,02,04,17,35,12.00
2023,02,04,17,36,17.90
2023,02,04,17,37,12.80
2023,02,04,17,38,12.60
2023,02,04,17,39,14.10
2023,02,04,17,40,16.00
2023,02,04,17,41,16.40
2023,02,04,17,42,13.10
2023,02,04,17,43,14.10
2023,02,04,17,44,15.20